EW7556 Weather Reports


time (UTC)temp
F
wind
direction
speed
knots
gust
knots
rain 1hr
in
rain 24hr
in
rain mn
in
humidity
%
barometer
mb
20260503050110 59 200 0.0 1.7 0.00 0.00 0.00 66 1014.8
20260503044612 59 211 1.7 2.6 0.00 0.00 0.00 67 1014.7
20260503043100 60 182 0.0 1.7 0.00 0.00 0.00 65 1014.5
20260503041614 59 188 0.9 1.7 0.00 0.00 0.00 65 1014.4
20260503040104 60 325 0.0 0.0 0.00 0.00 0.00 71 1014.3
20260503034550 62 325 0.0 0.0 0.00 0.00 0.00 69 1014.1
20260503033104 63 325 0.0 0.0 0.00 0.00 0.00 64 1013.9
20260503031605 66 325 0.0 0.0 0.00 0.00 0.00 60 1013.8
20260503030109 69 325 0.0 0.0 0.00 0.00 0.00 54 1013.8
20260503024603 72 325 0.0 0.0 0.00 0.00 0.00 47 1013.8
20260503023106 73 325 0.0 0.0 0.00 0.00 0.00 47 1013.8
20260503021502 73 325 0.0 0.9 0.00 0.00 0.00 46 1013.9
20260503020111 74 325 0.0 1.7 0.00 0.00 0.00 46 1014.0
20260503014554 75 271 0.0 0.9 0.00 0.00 0.00 42 1014.1
20260503013059 77 257 0.0 0.9 0.00 0.00 0.00 37 1014.2
20260503011610 78 198 0.0 0.9 0.00 0.00 0.00 33 1014.3
20260503010112 77 249 0.0 0.9 0.00 0.00 0.00 37 1014.4
20260503004603 76 331 0.0 3.5 0.00 0.00 0.00 35 1014.4
20260503003105 76 304 0.0 0.9 0.00 0.00 0.00 38 1014.4
20260503001501 75 297 0.0 4.3 0.00 0.00 0.00 41 1014.6
20260503000108 75 242 0.9 4.3 0.00 0.00 0.00 38 1014.6
20260502234555 75 324 0.0 3.5 0.00 0.00 0.00 43 1014.8
20260502233053 75 316 0.9 3.5 0.00 0.00 0.00 38 1015.0
20260502231558 75 237 0.0 3.5 0.00 0.00 0.00 39 1015.1
20260502230059 74 227 0.9 5.2 0.00 0.00 0.00 41 1015.4
20260502224544 73 143 2.6 5.2 0.00 0.00 0.00 43 1015.7
20260502223047 73 236 0.0 3.5 0.00 0.00 0.00 43 1016.0
20260502221549 73 236 0.0 3.5 0.00 0.00 0.00 49 1016.3
20260502220146 72 236 0.9 5.2 0.00 0.00 0.00 46 1016.5
20260502214547 72 236 1.7 5.2 0.00 0.00 0.00 46 1016.6
20260502213053 72 314 0.9 5.2 0.00 0.00 0.00 51 1016.8
20260502211555 71 330 2.6 7.0 0.00 0.00 0.00 52 1016.9
20260502210104 71 350 1.7 4.3 0.00 0.00 0.00 53 1017.0
20260502204548 69 210 2.6 7.0 0.00 0.00 0.00 57 1017.1
20260502203100 69 238 0.9 7.0 0.00 0.00 0.00 55 1017.2
20260502201550 70 209 3.5 7.8 0.00 0.00 0.00 53 1017.5
20260502200053 69 317 0.9 5.2 0.00 0.00 0.00 57 1017.6
20260502194541 68 240 1.7 5.2 0.00 0.00 0.00 60 1017.8
20260502193038 68 245 1.7 6.1 0.00 0.00 0.00 58 1017.9
20260502191543 67 229 2.6 5.2 0.00 0.00 0.00 61 1018.0
20260502190049 66 253 0.9 4.3 0.00 0.00 0.00 61 1018.1
20260502184536 67 236 1.7 4.3 0.00 0.00 0.00 60 1018.1
20260502183050 66 214 2.6 6.1 0.00 0.00 0.00 59 1018.2
20260502181556 65 224 1.7 4.3 0.00 0.00 0.00 64 1018.3
20260502180115 65 230 0.0 4.3 0.00 0.00 0.00 64 1018.4
20260502163059 57 209 0.9 3.5 0.00 0.00 0.00 91 1018.6
20260502161547 56 207 0.0 1.7 0.00 0.00 0.00 91 1018.5
20260502160104 54 257 0.0 2.6 0.00 0.00 0.00 92 1018.6
20260502151556 51 195 0.0 0.0 0.00 0.00 0.00 92 1018.4
20260502140110 47 240 0.0 0.9 0.00 0.00 0.00 92 1017.9
20260502123013 47 186 0.0 0.0 0.00 0.00 0.00 92 1017.7
20260502121519 48 186 0.0 2.6 0.00 0.00 0.00 92 1017.6
20260502120124 48 248 0.0 1.7 0.00 0.00 0.00 92 1017.5
20260502114512 48 248 0.0 0.9 0.00 0.00 0.00 92 1017.4
20260502113016 48 248 0.0 2.6 0.00 0.00 0.00 92 1017.2
20260502111519 48 211 0.0 0.9 0.00 0.00 0.00 92 1017.4
20260502110007 48 211 0.0 2.6 0.00 0.00 0.00 92 1017.1
20260502104509 48 198 0.9 2.6 0.00 0.00 0.00 92 1017.1
20260502103014 48 223 0.0 1.7 0.00 0.00 0.00 92 1017.1
20260502101515 48 211 0.9 4.3 0.00 0.00 0.00 92 1017.2
20260502100122 48 209 1.7 5.2 0.00 0.00 0.00 92 1017.2
20260502091517 48 229 2.6 6.1 0.00 0.00 0.00 92 1017.0
20260502090121 48 201 1.7 4.3 0.00 0.00 0.00 92 1017.0
20260502071510 49 195 0.0 0.9 0.00 0.00 0.00 90 1017.0
20260502070118 50 196 0.0 2.6 0.00 0.00 0.00 90 1016.9
20260502064501 50 217 0.9 6.1 0.00 0.00 0.00 90 1016.9
20260502063004 50 188 1.7 7.0 0.00 0.00 0.00 89 1017.0
20260502061508 51 243 1.7 5.2 0.00 0.00 0.00 89 1017.0
20260502060116 51 239 2.6 8.7 0.00 0.00 0.00 88 1016.7
20260502054600 51 195 3.5 7.0 0.00 0.00 0.00 88 1016.7
20260502053108 51 224 0.9 5.2 0.00 0.00 0.00 88 1016.8
20260502051505 51 229 0.9 2.6 0.00 0.00 0.00 88 1016.7